User: anonymous   Login
Location: Christchurch
(43.5330°S, 172.6330°E)
Time: 09:10:43
(UTC+13:00)
Language:

ARGOS - Orbit

View from above orbital plane
View from above orbital plane
View from above satellite
View from above satellite

Ground track
Ground track

The orbit data is extracted from the following two-line orbital elements,

1 25634U 99008A   19076.74548127 -.00000001  00000-0  19638-4 0  9990
2 25634  98.5269 129.1892 0010671 157.8891 202.2748 14.19348733 39041
Epoch (UTC): 17 March 2019 17:53:29
Eccentricity: 0.0010671
inclination: 98.5269°
perigee height: 820 km
apogee height: 835 km
right ascension of ascending node: 129.1892°
argument of perigee: 157.8891°
revolutions per day: 14.19348733
mean anomaly at epoch: 202.2748°
orbit number at epoch: 3904

The dashed part of the orbit path shows where the satellite is in the earth's shadow,  

DLR